This is the latest recevied weather packets stored in our database for station/object WX7FGZ-5. If no packets are shown the sender has not sent any weather packets the latest 10 day(s).
| Time | Temp. | Humidity | Pressure | Rain* | Wind** | Luminosity | Snow |
|---|---|---|---|---|---|---|---|
| 1778103425 | 17.22° C | 26% | 1022.5 hPa | 0 mm | - | 933 W/m² | - |
| 1778103259 | 17.22° C | 26% | 1022.5 hPa | 0 mm | - | 933 W/m² | - |
| 1778103141 | 17.22° C | 26% | 1022.5 hPa | 0 mm | - | 962 W/m² | - |
| 1778102958 | 17.22° C | 26% | 1022.5 hPa | 0 mm | - | 962 W/m² | - |
| 1778102574 | 17.22° C | 25% | 1022.7 hPa | 0 mm | - | 316 W/m² | - |
| 1778102358 | 17.22° C | 25% | 1022.7 hPa | 0 mm | - | 316 W/m² | - |
| 1778099958 | 16.67° C | 26% | 1022.1 hPa | 0 mm | - | 1127 W/m² | - |
| 1778099824 | 16.67° C | 27% | 1022.1 hPa | 0 mm | - | 1132 W/m² | - |
| 1778099657 | 16.67° C | 27% | 1022.1 hPa | 0 mm | - | 1132 W/m² | - |
| 1778098372 | 15.56° C | 32% | 1022.2 hPa | 0 mm | - | 1136 W/m² | - |
| 1778098189 | 15.56° C | 32% | 1022.2 hPa | 0 mm | - | 1136 W/m² | - |
| 1778098157 | 15.56° C | 32% | 1022.2 hPa | 0 mm | - | 1136 W/m² | - |
| 1778097858 | 15.56° C | 29% | 1022.1 hPa | 0 mm | - | 183 W/m² | - |
| 1778097464 | 15° C | 28% | 1022.2 hPa | 0 mm | - | 253 W/m² | - |
| 1778097257 | 15° C | 28% | 1022.2 hPa | 0 mm | - | 253 W/m² | - |
| 1778097147 | 15.56° C | 29% | 1022.3 hPa | 0 mm | - | 1297 W/m² | - |
| 1778096957 | 15.56° C | 29% | 1022.3 hPa | 0 mm | - | 1297 W/m² | - |
| 1778094898 | 15.56° C | 25% | 1022.7 hPa | 0 mm | - | 1127 W/m² | - |
| 1778094725 | 15.56° C | 25% | 1022.7 hPa | 0 mm | - | 1127 W/m² | - |
| 1778094119 | 16.11° C | 28% | 1022.7 hPa | 0 mm | - | 1069 W/m² | - |
| 1778093825 | 16.11° C | 28% | 1022.7 hPa | 0 mm | - | 1069 W/m² | - |
| 1778093526 | 15.56° C | 30% | 1022.6 hPa | 0 mm | - | 1074 W/m² | - |
| 1778093419 | 15° C | 32% | 1022.6 hPa | 0 mm | - | 1056 W/m² | - |
| 1778093225 | 15° C | 32% | 1022.6 hPa | 0 mm | - | 1056 W/m² | - |
| 1778092925 | 14.44° C | 29% | 1022.7 hPa | 0 mm | - | 1063 W/m² | - |
* Rain latest hour (hover to see other rain measurements)
** Current wind speed in m/s (hover to see current wind gust speed)